Regional Weather Roundup
Issued by NWS Charleston, SC

Current Version | Previous Version | Graphics & Text | Print | Product List | Glossary On
Versions: 1 2 3 4 5 6 7 8 9 10 11 12 13 14 15 16 17 18 19 20 21 22 23 24 25 26 27 28 29 30 31 32 33 34 35 36 37 38 39 40 41 42 43 44 45 46 47 48 49 50
000
ASUS42 KCHS 290311
RWRCHS

REGIONAL WEATHER ROUNDUP
NATIONAL WEATHER SERVICE CHARLESTON SC
1000 PM EST WED JAN 28 2015

NOTE: "FAIR" INDICATES FEW OR NO CLOUDS BELOW 12,000 FEET WITH NO
SIGNIFICANT WEATHER AND/OR OBSTRUCTIONS TO VISIBILITY.

NOT ALL STATIONS ARE QUALITY CONTROLLED BY THE NATIONAL
WEATHER SERVICE. USE DATA WITH CAUTION...ESPECIALLY
DEWPOINT OBSERVATIONS.

SCZ027-030-031-034>040-042>050-290400-
...SOUTHEAST SOUTH CAROLINA...

CITY           SKY/WX    TMP DP  RH WIND       PRES   REMARKS
N CHARLESTON   CLEAR     33  25  72 CALM      30.34S
WATERFRONT PRK   N/A     43 N/A N/A N3          N/A
MOUNT PLEASANT LGT RAIN N/A N/A N/A CALM      30.34R
PINOPOLIS      NOT AVBL
MONCKS CORNER  FAIR      32  28  86 CALM      30.34S
SUMMERVILLE    FAIR      32  30  93 CALM      30.35S
BEAUFORT MCAS  CLEAR     35  29  78 CALM      30.34R
BEAUFORT ARPT  FAIR      34  32  93 CALM      30.33S
HILTON HEAD IS CLEAR     37  32  81 N3        30.35R
WALTERBORO     CLEAR     32  27  80 CALM      30.35R
ALLENDALE      FAIR      34  27  75 CALM      30.33R

...SOUTHERN MIDLANDS AND PEE DEE...

CITY           SKY/WX    TMP DP  RH WIND       PRES   REMARKS
GEORGETOWN     NOT AVBL
KINGSTREE      NOT AVBL
ORANGEBURG     CLEAR     32  24  72 CALM      30.33S
BARNWELL         N/A     32  28  86 CALM      30.33S
AIKEN          FAIR      32  27  80 CALM      30.34S
MANNING        FAIR      30  28  93 CALM      30.34S
COLUMBIA       CLEAR     31  25  78 W3        30.33R
SUMTER         CLEAR     31  23  72 NE1       30.32R
FLORENCE       CLEAR     30  24  78 CALM      30.33R
MYRTLE BEACH   CLEAR     32  25  74 CALM      30.35S
N MYRTLE BEACH CLEAR     29  23  78 CALM      30.33S

$$

GAZ063-065-086>088-099>101-113>116-118-119-134>141-150-290400-
...SOUTHEAST GEORGIA...

CITY           SKY/WX    TMP DP  RH WIND       PRES   REMARKS
SAVANNAH ARPT  CLEAR     36  28  73 CALM      30.34R
HUNTER AAF     CLEAR     37  28  72 CALM      30.32R
FORT STEWART   CLEAR     32  27  82 CALM      30.32R
STATESBORO     CLEAR     30  30 100 CALM      30.32S
SYLVANIA       CLEAR     32  31  94 CALM      30.34R
CLAXTON        FAIR      32  32 100 CALM      30.33S

...CSRA...CENTRAL AND FAR SOUTHEAST GEORGIA...

CITY           SKY/WX    TMP DP  RH WIND       PRES   REMARKS
THOMSON        CLEAR     33  30  88 CALM      30.35R
AUGUSTA-BUSH   CLEAR     29  23  78 CALM      30.33R
AUGUSTA-DANIEL CLEAR     43  22  43 E5        30.32R
SWAINSBORO     FAIR      34  23  64 CALM      30.33R
VIDALIA        CLEAR     37  32  81 CALM      30.32R
EASTMAN        FAIR      33  33 100 CALM      30.35R
HAZLEHURST     FAIR      41  32  71 E3        30.31R
ALMA           CLEAR     34  31  88 CALM      30.32R
WAYCROSS       CLEAR     39  36  88 CALM      30.32R
JESUP          FAIR      36  34  93 CALM      30.32S
BAXLEY         FAIR      36  34  93 CALM      30.32R
BRUNSWICK      CLEAR     36  32  87 CALM      30.33R
SAINT SIMONS   CLEAR     40  32  73 NE5       30.32R WCI  37

$$

SCZ027-028-034-036>038-045-046-048>050-GAZ119-141-290400-
...LAKE AND SUPPLEMENTAL COASTAL OBSERVATIONS...

STATION/POSITION TIME  TEMP    WIND        PRES    WAVE   SWELL
                       AIR SEA DIR/SP/G            HT/PER HT/PER/DIR
                 (UTC) (F)     (DEG/KT/KT) (MB)    (FT/S) (FT/S/D)
UPR LAKE MARION  NOT AVBL
WINYAH BAY       0145   33     330/  3     1025.0
LAKE MURRAY      0200   40      CALM  /  1 1025.7R
ACE BASIN NERRS  NOT AVBL
FORT PULASKI     0200           40/  7/  8 1027.2R
SAPELO ISLAND    0200   41      60/  3     1026.0S

$$

ANZ835-935-AMZ111-154-330-350-352-354-370-450-454-472-290400-
...C-MAN AND BUOY OBSERVATIONS...

STATION/POSITION TIME  TEMP    WIND        PRES    WAVE   SWELL
                       AIR SEA DIR/SP/G            HT/PER HT/PER/DIR
                 (UTC) (F)     (DEG/KT/KT) (MB)    (FT/S) (FT/S/D)
BUOY 41004       0250   49 66   10/ 14/ 17 1026.5R   4/ 6   2/ 6
BUOY 41008       0250   49 53   50/ 12/ 14 1026.6R   3/ 6   2/ 70/ 6
FOLLY BEACH CMAN 0200   40     310/  4/  4 1027.4R
CAPERS NEARSHORE 0200   45      10/  8/ 10   N/A
FRIPP NEARSHORE  0200   47      30/ 10/ 12 1026.2R


STATION/POSITION TIME  TEMP    WIND        PRES    WAVE   SWELL
                       AIR SEA DIR/SP/G            HT/PER HT/PER/DIR
                 (UTC) (F)     (DEG/KT/KT) (MB)    (FT/S) (FT/S/D)
5E ST. MARYS GA  NOT AVBL
FRYING PAN BUOY  0250   46 63  360/ 14/ 21 1027.3R   4/ 6   2/100/ 8
BUOY 41025       0250   41 58  340/ 17/ 21 1025.2R   5/10   3/ 30/10
CAPE LOOKOUT NC  0200   40     340/ 13/ 15 1025.9R
BUOY 41002       0250   56 71  350/ 19/ 27 1022.9R  11/ 9   5/ 30/11
BUOY 41010       0220   59 76   10/ 16/ 23 1023.7R
ST AUGUSTINE FL  0300   51      30/ 15/ 17 1026.2R


$$


USA.gov is the U.S. government's official web portal to all federal, state and local government web resources and services.